This is the latest recevied weather packets stored in our database for station/object KB9PVH-8. If no packets are shown the sender has not sent any weather packets the latest 10 day(s).
| Time | Temp. | Humidity | Pressure | Rain* | Wind** | Luminosity | Snow |
|---|---|---|---|---|---|---|---|
| 1788395384 | 27.78° C | - | - | 0 mm | 0 m/s | - | - |
| 1788394545 | 27.78° C | - | - | 0 mm | 0 m/s | - | - |
| 1788394059 | 28.89° C | - | - | 0 mm | 0.45 m/s, ° | - | - |
| 1788393702 | 28.89° C | - | - | 0 mm | 0.45 m/s, ° | - | - |
| 1788392866 | 29.44° C | - | - | 0 mm | 0.89 m/s, ° | - | - |
| 1788392023 | 30° C | - | - | 0 mm | 1.34 m/s, ° | - | - |
| 1788391185 | 30.56° C | - | - | 0 mm | 1.34 m/s, ° | - | - |
| 1788390396 | 32.22° C | - | - | 0 mm | 2.24 m/s, ° | - | - |
| 1788390341 | 32.22° C | - | - | 0 mm | 2.24 m/s, ° | - | - |
| 1788389504 | 32.78° C | - | - | 0 mm | 3.13 m/s, ° | - | - |
| 1788388632 | 32.22° C | - | - | 0 mm | 3.58 m/s, ° | - | - |
| 1788387793 | 31.11° C | - | - | 0 mm | 5.36 m/s, ° | - | - |
| 1788386955 | 30.56° C | - | - | 0 mm | 5.81 m/s, ° | - | - |
| 1788385273 | 30° C | - | - | 0 mm | 8.49 m/s, ° | - | - |
| 1788384476 | 30° C | - | - | 0 mm | 8.05 m/s, ° | - | - |
| 1788384431 | 30° C | - | - | 0 mm | 8.05 m/s, ° | - | - |
| 1788383592 | 30° C | - | - | 0 mm | 6.71 m/s, ° | - | - |
| 1788382755 | 30° C | - | - | 0 mm | 9.39 m/s, ° | - | - |
| 1788381915 | 30° C | - | - | 0 mm | 8.49 m/s, ° | - | - |
| 1788380231 | 30° C | - | - | 0 mm | 13.41 m/s, ° | - | - |
| 1788379391 | 30.56° C | - | - | 0 mm | 12.96 m/s, ° | - | - |
| 1788378669 | 30.56° C | - | - | 0 mm | 19.67 m/s, ° | - | - |
| 1788378628 | 30.56° C | - | - | 0 mm | 19.67 m/s, ° | - | - |
| 1788378551 | 30.56° C | - | - | 0 mm | 19.67 m/s, ° | - | - |
| 1788377711 | 30° C | - | - | 0 mm | 17.43 m/s, ° | - | - |
* Rain latest hour (hover to see other rain measurements)
** Current wind speed in m/s (hover to see current wind gust speed)